Regional Weather Roundup
Issued by NWS Upton, NY

Home | Current Version | Previous Version | Text Only | Print | Product List | Glossary On
Versions: 1 2 3 4 5 6 7 8 9 10 11 12 13 14 15 16 17 18 19 20 21 22 23 24 25 26 27 28
000
ASUS41 KOKX 200308
RWROKX

REGIONAL WEATHER ROUNDUP
NATIONAL WEATHER SERVICE NEW YORK NY
1000 PM EST SUN FEB 19 2017

NOTE: "FAIR" INDICATES FEW OR NO CLOUDS BELOW 12,000 FEET WITH NO
SIGNIFICANT WEATHER AND/OR OBSTRUCTIONS TO VISIBILITY.

NYZ071-072-176-178-NJZ106-104-200400-
NEW YORK CITY METRO AREA

CITY           SKY/WX    TMP DP  RH WIND       PRES   REMARKS
Central Park   CLEAR     56  31  38 N6        29.98R
Wall St Helipt NOT AVBL
LaGuardia APRT CLEAR     57  30  35 NW6       29.96R
Kennedy INTL   CLEAR     56  32  40 N14       29.97R
Breezy Point     N/A     55 N/A N/A N10         N/A
Newark/Liberty CLEAR     56  31  38 N14       29.96R
Teterboro      CLEAR     55  32  41 NW5       29.96R
$$

NYZ177-179-078>081-200400-
LONG ISLAND NEW YORK

CITY           SKY/WX    TMP DP  RH WIND       PRES   REMARKS
Jones Beach      N/A     52 N/A N/A NW7         N/A
Matinecock PT  NOT AVBL
Farmingdale    CLEAR     52  28  39 N5        29.95R
MacArthur/ISP  CLEAR     43  29  57 N3        29.94R
Shirley        CLEAR     41  30  65 CALM      29.95R
Westhampton    CLEAR     32  24  72 CALM      29.96R
Southampton    NOT AVBL
Bridgehampton  NOT AVBL
East Hampton     N/A     37  30  76 CALM      29.93R
Montauk          N/A     48  32  53 NW6       29.93R
$$

NYZ052-065-067-200400-
HUDSON VALLEY

CITY           SKY/WX    TMP DP  RH WIND       PRES   REMARKS
White Plains   CLEAR     48  29  47 NW8       29.94R
Newburgh       NOT AVBL
Montgomery     CLEAR     41  30  65 NW7       29.96R
Poughkeepsie   CLEAR     39  29  67 W6        29.96R WCI  35
Albany         MOCLDY    44  31  60 W9        29.96R
$$

NJZ001-105-106-008-010-013-015-019>022-104-200400-
NEW JERSEY

CITY           SKY/WX    TMP DP  RH WIND       PRES   REMARKS
Newark/Liberty CLEAR     56  31  38 N14       29.96R
Teterboro      CLEAR     55  32  41 NW5       29.96R
Caldwell       CLEAR     44  32  62 CALM      29.98R
Somerville     CLEAR     38  32  79 CALM      29.96R
Linden         NOT AVBL
Sussex         CLEAR     36  31  82 CALM      29.98R
Andover          N/A     48  31  51 N6        29.98R
Trenton        CLEAR     51  33  50 N3        29.96R
Millville      CLEAR     41  36  82 W6        29.97R
Atlantic City  CLEAR     49  35  58 CALM      29.96R
Wrightstown    CLEAR     47  35  64 CALM      29.92R
Toms River     CLEAR     38  31  76 CALM      29.95R
Belmar         CLEAR     53  33  46 NW6       29.96R
$$

PAZ047>061-062-071-200400-
EASTERN PENNSYLVANIA

CITY           SKY/WX    TMP DP  RH WIND       PRES   REMARKS
Philadelphia   CLEAR     59  33  37 W9        29.97R
Allentown      CLEAR     53  35  50 NW5       29.98R
Scranton       CLEAR     51  31  46 W3        30.01R
$$

CTZ002-004>006-009-010-012-RIZ004-006-007-MAZ004-011-015-200400-
SOUTHERN NEW ENGLAND
 IN CT

CITY           SKY/WX    TMP DP  RH WIND       PRES   REMARKS
Bradley INTL   PTCLDY    43  31  62 W10       29.93R
Hartford       PTCLDY    50  31  48 W5        29.94R
Danbury        CLEAR     33  28  81 CALM      29.96R
Wtrbury/Oxford CLEAR     46  28  49 N9        29.95R
Bridgeport     CLEAR     52  29  41 NW5       29.94R
Meriden        PTCLDY    37  29  72 CALM      29.94R
New Haven      CLEAR     40  31  70 W3        29.94R
Chester          N/A     50  30  46 NW10G18   29.93R
Groton         CLEAR     50  31  48 NW12      29.91R
Wilimantic     CLEAR     50  31  48 CALM      29.92R

 IN RI

CITY           SKY/WX    TMP DP  RH WIND       PRES   REMARKS
Providence     CLEAR     47  30  51 W9        29.89R
Block Island   CLEAR     51  32  48 NW12      29.91R
Westerly       CLEAR     53  28  38 NW18G25   29.91S
 IN MA

CITY           SKY/WX    TMP DP  RH WIND       PRES   REMARKS
Boston         CLOUDY    51  32  48 W10       29.88R
Worcester      PTCLDY    43  29  57 W9        29.88R
Westfield      PTCLDY    44  32  62 W12       29.92R
Provincetown   CLOUDY    45  36  70 W7        29.87R
Nantucket      CLEAR     49  31  49 NW12      29.86R
$$

ANZ330-335-338-340-345-350-353-355-200400-
COASTAL MARINE OBSERVATIONS


STATION/POSITION TIME  SKY/WX   TEMP    WIND        PRES    VSBY  WAVE
                                AIR SEA DIR/SP/G                  HT/PER
                 (UTC)          (F)     (DEG/KT/KT) (MB)    (MI)  (FT/S)
NY HARB ENTRANCE 0150            53 43  290/  8/  8 1012.9          2/ 7
20 S FIRE ISLAND 0250            47 41  350/  8/  8 1013.6          3/ 7
GREAT SOUTH BAY  NOT AVBL
23 SSW MONTAUK P 0150            47 44              1013.2          3/ 7
15 E BARNEGAT LI 0230               43                N/A           3/ 7
HUDSON CANYON    0150               51              1012.8          3/ 7
KINGS POINT      0248            51 38              1014.3
EXECUTION ROCKS  NOT AVBL
CENTRAL LI SOUND 0215            45     340/  8/ 10   N/A           1
EASTERN LI SOUND NOT AVBL
ROBBINS REEF     0248            56     360/ 12/ 14 1014.7
$$


>>>>>>>>>>>>>>>>>>>>>>>>>>>> KEY <<<<<<<<<<<<<<<<<<<<<<<<<<<
>                                                          <
>     SKY/WX - Sky Condition/Present Weather               <
>     TMP    - Temperature in Fahrenheit                   <
>     DP     - Dew Point in Fahrenheit                     <
>     RH     - Relative Humidity in Percent                <
>     WIND   - Direction (from) and Speed in MPH           <
>     PRES   - Mean Sea Level Pressure (inches of Hg)      <
>     WCI    - Wind Chill Index                            <
>     VSB    - VISIBILITY IN MILES                         <
>     HX     - HEAT INDEX                                  <
>     TC     - TEMPERATURE IN CELSIUS                      <
>     VRB    - VARIABLE WIND DIRECTION                     <
>                                                          <
>>>>>>>>>>>>>>>>>>>>>>>>>>>> KEY <<<<<<<<<<<<<<<<<<<<<<<<<<<




USA.gov is the U.S. government's official web portal to all federal, state and local government web resources and services.